[[{"header":{"parameterUnit":"m.s-1","parameterCategory":1,"la1":30.2991,"la2":30.254,"lo1":-89.0895,"lo2":-89.0444,"dy":0.0017,"dx":0.0017,"nx":28,"ny":28,"refTime":"2026-02-04T09:00:00:Z","depth":0,"parameterNumber":2,"parameterNumberName":"U-component_of_WINDS"},"data":[0,0,0,0,0,0,0,0,0,0,0,0,0,0,0,0,0,0,0,0,0,0,0,0,0,0,0,0,0,0,0,0,0,0,0,0,0,0,0,0,0,0,0,0,0,0,0,0,0,0,0,0,0,0,0,0,0,0,2.5725,2.5725,0,2.5772,2.5772,2.5773,2.5774,2.5773,2.5772,2.5772,2.582,2.5822,2.5823,0,0,0,0,0,0,0,0,0,0,0,0,0,2.564,2.5642,2.5725,2.5726,2.5726,2.5771,2.5772,2.5773,2.5774,2.5773,2.5772,2.5772,2.5819,2.5821,2.5824,0,0,0,0,0,0,0,0,0,0,0,0,0,2.5681,2.5642,2.5725,2.5732,2.5733,2.5771,2.5772,2.5773,2.5774,2.5773,2.5772,2.5771,2.5819,2.5821,2.5824,2.5858,0,0,2.5832,2.5833,0,0,0,0,0,0,0,0,2.5679,2.5684,2.573,2.5732,2.5733,2.5766,2.576,2.5802,2.5774,2.5758,2.5772,2.5771,2.5803,2.5807,2.5817,2.586,2.5862,2.5833,2.5834,2.5835,2.5836,0,0,0,0,0,0,0,2.5676,2.5682,2.5743,2.5731,2.5733,2.5734,2.5739,2.5768,2.5785,2.576,2.576,2.5765,2.5803,2.5815,2.5818,2.5863,2.5832,2.5835,2.5837,2.5838,2.5941,2.5942,0,0,0,0,0,0,2.5671,2.568,2.5742,2.5745,2.5703,2.5736,2.5742,2.5756,2.5785,2.5788,2.5766,2.5765,2.581,2.5815,2.582,2.5864,2.5835,2.5838,2.5839,2.594,2.5941,2.5942,0,0,0,0,0,0,2.5669,2.5677,2.574,2.5712,2.572,2.5739,2.5755,2.5758,2.5769,2.5789,2.5793,2.5774,2.581,2.5816,2.585,2.5866,2.5839,2.5842,2.5939,2.594,2.5942,2.5951,0,0,0,0,0,0,2.5667,2.5676,2.5688,2.5713,2.5722,2.5768,2.5756,2.5759,2.5774,2.5773,2.5798,2.5801,2.581,2.5846,2.5852,2.5869,2.5844,2.5937,2.5939,2.5941,2.595,2.5953,2.5956,0,0,0,0,0,2.5664,2.5688,2.5689,2.5696,2.5737,2.5768,2.5774,2.5783,2.5775,2.5788,2.5802,2.5801,2.5863,2.5849,2.5857,2.5874,2.5936,2.5939,2.5941,2.5948,2.5953,2.5956,0,0,0,0,0,0,2.5664,2.5691,2.5692,2.5725,2.5745,2.5769,2.5785,2.5787,2.5809,2.5807,2.5818,2.5824,2.5857,2.5869,2.5853,2.5911,2.5899,2.5903,2.5902,2.5906,2.5909,2.5905,2.5846,0,0,0,0,0,2.5668,2.5691,2.5713,2.574,2.575,2.5766,2.578,2.5786,2.5806,2.5815,2.583,2.5851,2.5876,2.5892,2.5915,2.5952,2.5959,2.5969,2.5972,2.5974,2.5978,2.6001,2.6006,2.5951,2.5951,2.595,0,0,2.5677,2.5694,2.5707,2.5741,2.5757,2.5781,2.5773,2.5798,2.5817,2.5818,2.5851,2.5864,2.5888,2.5924,2.5941,2.5935,2.5995,2.5977,2.5979,2.5981,2.6004,2.601,2.6014,2.5952,2.5952,2.5952,0,0,2.5704,2.5719,2.5745,2.5761,2.5786,2.5797,2.5803,2.5828,2.5837,2.587,2.5873,2.5896,2.5937,2.5955,2.597,2.6009,2.601,2.6017,2.6033,2.6056,2.606,2.6064,2.608,2.6085,2.602,2.602,2.602,0,2.5711,2.5747,2.5757,2.5784,2.5799,2.5804,2.5831,2.5846,2.5877,2.5889,2.5882,2.5937,2.5953,2.5995,2.6005,2.6016,2.6025,2.6013,2.6059,2.6063,2.6067,2.6082,2.6088,2.6021,2.6021,2.6021,2.6021,0,2.5756,2.5781,2.5799,2.583,2.5848,2.5874,2.589,2.5907,2.5913,2.5925,2.5961,2.5981,2.601,2.6021,2.6025,2.6065,2.6061,2.6056,2.6044,2.6073,2.6087,2.6093,2.6022,2.6022,2.6021,2.6021,0,0,2.5782,2.5821,2.5828,2.5843,2.5873,2.5893,2.5921,2.595,2.5966,2.5988,2.6013,2.605,2.6048,2.6065,2.6072,2.6092,2.6125,2.6086,2.6087,2.6093,2.6172,2.6175,2.6181,2.6126,2.6127,2.6128,2.617,0,2.5814,2.5863,2.5875,2.5918,2.5943,2.5949,2.5974,2.5996,2.6009,2.6033,2.6048,2.6075,2.6069,2.608,2.61,2.6116,2.6141,2.6113,2.615,2.6151,2.6144,2.6188,2.6191,2.623,2.6176,2.6177,2.6177,0,2.5856,2.5881,2.5927,2.5956,2.5967,2.5989,2.6019,2.6041,2.6067,2.6076,2.6096,2.6103,2.6135,2.6122,2.6167,2.6148,2.6165,2.6176,2.6177,2.6181,2.6166,2.6194,2.6242,2.6248,2.6186,2.6185,2.6185,0,2.5873,2.5918,2.5952,2.5965,2.5999,2.6015,2.603,2.6055,2.6073,2.61,2.6112,2.6142,2.6158,2.6182,2.6197,2.6186,2.6242,2.6229,2.6251,2.6251,2.6262,2.6261,2.6314,2.6272,2.6272,2.6272,2.6271,0,2.5907,2.5935,2.596,2.5981,2.6013,2.6028,2.606,2.6076,2.6099,2.6124,2.6132,2.6156,2.6174,2.6201,2.6213,2.625,2.6257,2.6266,2.6269,2.6266,2.6265,2.6276,2.6274,2.6273,2.6273,2.6272,2.6272,0,2.5931,2.5948,2.5986,2.6016,2.6025,2.6048,2.6075,2.6096,2.6111,2.6144,2.6152,2.6176,2.6208,2.6226,2.6267,2.6275,2.6317,2.6318,2.6308,2.6309,2.633,2.6329,2.6393,2.6403,2.6353,2.6354,2.6354,0,2.5951,2.5973,2.6007,2.6025,2.6041,2.6069,2.6088,2.6104,2.6124,2.6158,2.6176,2.6209,2.6236,2.6289,2.631,2.6342,2.6345,2.6365,2.6349,2.6346,2.6347,2.6345,2.6349,2.6368,2.6368,2.6369,2.6369,0,2.5986,2.5995,2.6022,2.6053,2.6076,2.6101,2.6126,2.6141,2.6162,2.6184,2.6218,2.624,2.6283,2.6316,2.6351,2.6368,2.6373,2.6374,2.6381,2.6378,2.6371,2.6377,2.6316,2.6372,2.6372,2.6372,2.6371,2.6371,2.601,2.6031,2.6059,2.609,2.6111,2.6135,2.6158,2.6177,2.6205,2.6241,2.625,2.6286,2.6315,2.6362,2.6381,2.6411,2.6407,2.6416,2.6419,2.6421,2.6423,2.6367,2.6417,2.6417,2.6417,2.6417,2.6417,0,2.6047,2.6066,2.6094,2.613,2.6155,2.6158,2.6187,2.6208,2.624,2.6267,2.6294,2.6335,2.6369,2.6395,2.643,2.6449,2.6452,2.6458,2.6456,2.6461,2.6423,2.6415,2.6454,2.6454,2.6454,2.6454,2.6454,2.6454,2.6069,2.6105,2.6118,2.6166,2.6185,2.6221,2.6238,2.6261,2.6283,2.6328,2.6356,2.6373,2.64,2.6438,2.647,2.6477,2.649,2.6495,2.6503,2.6467,2.6463,2.6459,2.6451,2.6498,2.6498,2.6538,2.6538,2.6538]},{"header":{"parameterUnit":"m.s-1","parameterCategory":1,"la1":30.2991,"la2":30.254,"lo1":-89.0895,"lo2":-89.0444,"dy":0.0017,"dx":0.0017,"nx":28,"ny":28,"refTime":"2026-02-04T09:00:00:Z","depth":0,"parameterNumber":3,"parameterNumberName":"V-component_of_WINDS"},"data":[0,0,0,0,0,0,0,0,0,0,0,0,0,0,0,0,0,0,0,0,0,0,0,0,0,0,0,0,0,0,0,0,0,0,0,0,0,0,0,0,0,0,0,0,0,0,0,0,0,0,0,0,0,0,0,0,0,0,-5.8177,-5.8178,0,-5.8295,-5.8296,-5.8297,-5.833,-5.8329,-5.8328,-5.8328,-5.8444,-5.8447,-5.8451,0,0,0,0,0,0,0,0,0,0,0,0,0,-5.7978,-5.7981,-5.8176,-5.8178,-5.8179,-5.8294,-5.8296,-5.8298,-5.833,-5.8329,-5.8328,-5.8327,-5.8442,-5.8447,-5.8451,0,0,0,0,0,0,0,0,0,0,0,0,0,-5.8077,-5.7982,-5.8176,-5.8209,-5.8214,-5.8294,-5.8296,-5.8298,-5.833,-5.8329,-5.8328,-5.8327,-5.8441,-5.8446,-5.8452,-5.8506,0,0,-5.8469,-5.8471,0,0,0,0,0,0,0,0,-5.8071,-5.8084,-5.8203,-5.8207,-5.8212,-5.8296,-5.8269,-5.8368,-5.833,-5.8285,-5.8328,-5.8326,-5.8395,-5.8404,-5.8429,-5.8512,-5.8517,-5.8469,-5.8473,-5.8475,-5.8477,0,0,0,0,0,0,0,-5.8064,-5.8079,-5.8223,-5.8205,-5.821,-5.8218,-5.8231,-5.8288,-5.8344,-5.8289,-5.8292,-5.8306,-5.8397,-5.8423,-5.8432,-5.8519,-5.8469,-5.8474,-5.8478,-5.848,-5.8657,-5.8659,0,0,0,0,0,0,-5.8052,-5.8073,-5.8219,-5.8227,-5.8138,-5.8223,-5.8237,-5.827,-5.8344,-5.8354,-5.8307,-5.8307,-5.8414,-5.8425,-5.8436,-5.8507,-5.8475,-5.848,-5.8484,-5.8656,-5.8658,-5.8659,0,0,0,0,0,0,-5.8048,-5.8065,-5.8215,-5.8151,-5.817,-5.8227,-5.8264,-5.8273,-5.8299,-5.8357,-5.8367,-5.8323,-5.8414,-5.8428,-5.849,-5.8512,-5.8483,-5.8488,-5.8654,-5.8656,-5.8658,-5.8649,0,0,0,0,0,0,-5.8042,-5.8063,-5.8084,-5.8151,-5.8174,-5.8267,-5.8265,-5.8276,-5.8309,-5.8311,-5.8375,-5.8384,-5.8414,-5.8482,-5.8496,-5.8519,-5.8492,-5.8653,-5.8655,-5.8658,-5.8648,-5.8651,-5.8653,0,0,0,0,0,-5.8034,-5.8074,-5.8085,-5.8102,-5.8201,-5.8268,-5.8281,-5.8316,-5.8311,-5.8333,-5.8371,-5.8382,-5.8507,-5.8488,-5.8504,-5.8529,-5.8651,-5.8654,-5.8657,-5.8646,-5.865,-5.8653,0,0,0,0,0,0,-5.8005,-5.8084,-5.8096,-5.8159,-5.8207,-5.8273,-5.8302,-5.8318,-5.8367,-5.8366,-5.8406,-5.842,-5.848,-5.8511,-5.8488,-5.8588,-5.858,-5.8586,-5.8566,-5.857,-5.8572,-5.8563,-5.8497,0,0,0,0,0,-5.8007,-5.8055,-5.8121,-5.817,-5.8194,-5.8244,-5.8274,-5.8298,-5.8348,-5.8368,-5.841,-5.8458,-5.8509,-5.8541,-5.859,-5.8653,-5.8668,-5.8678,-5.8681,-5.8683,-5.8688,-5.8727,-5.8733,-5.8669,-5.8669,-5.8669,0,0,-5.8009,-5.8058,-5.8085,-5.8166,-5.8206,-5.8255,-5.826,-5.8311,-5.8349,-5.8375,-5.8438,-5.8471,-5.8527,-5.8591,-5.8621,-5.8618,-5.871,-5.8687,-5.8688,-5.8692,-5.8731,-5.8737,-5.8742,-5.8671,-5.8671,-5.8671,0,0,-5.8039,-5.808,-5.8128,-5.8169,-5.8231,-5.8265,-5.8277,-5.8342,-5.8366,-5.843,-5.8452,-5.8497,-5.8582,-5.8623,-5.8654,-5.8706,-5.8719,-5.8721,-5.8734,-5.8772,-5.8777,-5.8782,-5.8802,-5.8808,-5.8726,-5.8726,-5.8726,0,-5.8034,-5.811,-5.815,-5.8202,-5.8237,-5.8267,-5.8317,-5.8354,-5.8428,-5.8452,-5.8448,-5.856,-5.8599,-5.8675,-5.8688,-5.8712,-5.8727,-5.8713,-5.8773,-5.8778,-5.8783,-5.8803,-5.881,-5.8726,-5.8726,-5.8726,-5.8726,0,-5.8102,-5.8155,-5.8186,-5.826,-5.8299,-5.8349,-5.8397,-5.8432,-5.8454,-5.8488,-5.8555,-5.8604,-5.8666,-5.8686,-5.8705,-5.8765,-5.8762,-5.8765,-5.8758,-5.8789,-5.8808,-5.8816,-5.8725,-5.8725,-5.8725,-5.8726,0,0,-5.8113,-5.8213,-5.8224,-5.826,-5.8333,-5.8374,-5.8427,-5.849,-5.852,-5.8571,-5.8617,-5.8692,-5.8697,-5.8733,-5.8758,-5.8791,-5.8832,-5.8791,-5.8793,-5.8798,-5.8904,-5.8902,-5.891,-5.8842,-5.8844,-5.8845,-5.89,0,-5.8153,-5.825,-5.829,-5.8368,-5.8419,-5.845,-5.8497,-5.8547,-5.8582,-5.863,-5.8668,-5.8721,-5.8723,-5.8745,-5.8779,-5.882,-5.8854,-5.8817,-5.8886,-5.8888,-5.8871,-5.8919,-5.8916,-5.8965,-5.8908,-5.8909,-5.891,0,-5.8212,-5.8267,-5.8351,-5.8423,-5.8445,-5.8486,-5.855,-5.8596,-5.8654,-5.8677,-5.8721,-5.8745,-5.8803,-5.8793,-5.8873,-5.8847,-5.8878,-5.8903,-5.8906,-5.8913,-5.89,-5.8929,-5.8981,-5.8989,-5.8922,-5.8921,-5.892,0,-5.8214,-5.8309,-5.8373,-5.8403,-5.8487,-5.8516,-5.8552,-5.8609,-5.8647,-5.8702,-5.8727,-5.8787,-5.882,-5.8867,-5.8908,-5.8896,-5.8986,-5.8978,-5.9007,-5.9006,-5.9023,-5.9022,-5.9082,-5.9043,-5.9042,-5.9042,-5.9042,0,-5.8255,-5.8305,-5.8376,-5.8415,-5.8474,-5.852,-5.8576,-5.8615,-5.8667,-5.8715,-5.8745,-5.8789,-5.884,-5.8891,-5.8923,-5.8987,-5.9001,-5.9022,-5.903,-5.902,-5.9017,-5.904,-5.9038,-5.9044,-5.9044,-5.9043,-5.9043,0,-5.8266,-5.8315,-5.8387,-5.8463,-5.8484,-5.8523,-5.8588,-5.8628,-5.8666,-5.8726,-5.8743,-5.8803,-5.8865,-5.8911,-5.899,-5.9012,-5.908,-5.9088,-5.9061,-5.9065,-5.9092,-5.909,-5.917,-5.9183,-5.9134,-5.9134,-5.9135,0,-5.8288,-5.8329,-5.841,-5.8446,-5.8483,-5.8539,-5.8578,-5.8626,-5.8666,-5.8739,-5.877,-5.8835,-5.8889,-5.8987,-5.9037,-5.9099,-5.9109,-5.9133,-5.9118,-5.9108,-5.9111,-5.9108,-5.9114,-5.9134,-5.9135,-5.9135,-5.9135,0,-5.8324,-5.8348,-5.8404,-5.8471,-5.8518,-5.8572,-5.8626,-5.8653,-5.8711,-5.8754,-5.882,-5.8862,-5.8946,-5.9011,-5.9079,-5.9116,-5.9136,-5.914,-5.9151,-5.914,-5.9124,-5.9135,-5.9067,-5.9138,-5.9137,-5.9137,-5.9137,-5.9137,-5.8342,-5.8381,-5.8447,-5.8509,-5.8557,-5.8608,-5.865,-5.8696,-5.8752,-5.8826,-5.8851,-5.8919,-5.898,-5.9074,-5.9113,-5.9167,-5.9167,-5.9181,-5.9185,-5.9187,-5.9188,-5.9116,-5.9179,-5.9179,-5.9179,-5.9179,-5.9179,0,-5.8381,-5.8426,-5.8484,-5.8561,-5.8611,-5.8629,-5.8691,-5.8732,-5.8792,-5.8849,-5.8904,-5.8981,-5.9045,-5.9102,-5.9169,-5.9202,-5.9213,-5.9217,-5.9215,-5.9224,-5.9183,-5.9168,-5.9208,-5.9208,-5.9208,-5.9208,-5.9208,-5.9208,-5.8407,-5.8475,-5.8507,-5.86,-5.8644,-5.8713,-5.8748,-5.8796,-5.8842,-5.8928,-5.8983,-5.9021,-5.9078,-5.9151,-5.9211,-5.9226,-5.925,-5.9253,-5.927,-5.923,-5.9227,-5.9223,-5.921,-5.9257,-5.9257,-5.9307,-5.9307,-5.9308]}]]